Location: �bnet
(46.9957°N, 8.4908°E)
Time: 01:14:53
(UTC+00:00)

Meteor 2-12 Rocket - Pass Details

Date: 11 May 2021
Orbit: 935 x 958 km, 82.5° (Epoch: 23 June)

Event Time Altitude Azimuth Distance (km) Brightness Sun altitude
Rises 20:53:41 0° 352° (N) 3,615 8.6 -16.8°
Reaches altitude 10° 20:56:13 10° 356° (N) 2,663 7.7 -17.1°
Maximum altitude 21:02:16 65° 78° (ENE) 1,024 4.5 -17.7°
Enters shadow 21:05:23 29° 152° (SSE) 1,632 5.1 -18.0°
